Weather History for SABE - October, 2012

Change the Weather History Date:

Thursday, October 11, 2012

  Actual Average Record
Temperature  
Mean Temperature 57 °F -  
Max Temperature 63 °F 72 °F 77 °F (2002)
Min Temperature 51 °F 58 °F 44 °F (2003)
Degree Days  
Heating Degree Days 8    
Growing Degree Days 7 (Base 50)    
Moisture  
Dew Point 47 °F    
Average Humidity 67    
Maximum Humidity 88    
Minimum Humidity 43    
Precipitation  
Precipitation 0.00 in 0.14 in - ()
Sea Level Pressure  
Sea Level Pressure 30.29 in    
Wind  
Wind Speed 10 mph ()    
Max Wind Speed 17 mph    
Max Gust Speed -    
Visibility 6.1 miles    
Events      
Averages and records for this station are not official NWS values.
T = Trace of Precipitation, MM = Missing Value Source: Averaged Metar Reports

Daily Weather History Graph

Daily Weather History Graph

Search for Another Location

Airport or City:

Trip Planner

Search our weather history database for the weather conditions in past years. The results will help you decide how hot, cold, wet, or windy it might be!

Date:

Astronomy

Oct. 11, 2012 Rise Set
Actual Time 6:16 AM ART 7:04 PM ART
Civil Twilight 5:50 AM ART 7:30 PM ART
Nautical Twilight 5:20 AM ART 8:00 PM ART
Astronomical Twilight 4:49 AM ART 8:31 PM ART
Moon 3:32 AM ART (10/11) 3:08 PM ART (10/11)
Length of Visible Light 13h 39m
Length of Day
12h 48m
Waning Crescent, 19% of the Moon is Illuminated
Oct 11
Waning Crescent
Oct 15
New
Oct 22
First Quarter
Oct 29
Full
Nov 6
Last Quarter

Hourly Weather History & Observations

Time (ART) Temp. Dew Point Humidity Pressure Visibility Wind Dir Wind Speed Gust Speed Precip Events Conditions
12:00 AM 53 °F 42 °F 57% 30.32 in 6 mi SSE 13.8 mph - -   Partly Cloudy
12:00 AM 53.6 °F 42.8 °F 67% 30.30 in 6.2 mi SSE 17.3 mph - N/A   Scattered Clouds
1:00 AM 53.6 °F 42.8 °F 67% 30.30 in 6.2 mi SSE 12.7 mph - N/A   Scattered Clouds
2:00 AM 53.6 °F 44.6 °F 72% 30.30 in 6.2 mi SSE 11.5 mph - N/A   Mostly Cloudy
3:00 AM 53 °F 44 °F 61% 30.29 in 6 mi SSE 8.1 mph - -   Mostly Cloudy
3:00 AM 53.6 °F 42.8 °F 67% 30.27 in 6.2 mi SSE 8.1 mph - N/A   Mostly Cloudy
4:00 AM 53.6 °F 44.6 °F 72% 30.27 in 6.2 mi SSE 11.5 mph - N/A   Mostly Cloudy
5:00 AM 51.8 °F 44.6 °F 76% 30.27 in 6.2 mi South 5.8 mph - N/A   Mostly Cloudy
6:00 AM 53 °F 46 °F 68% 30.30 in 6 mi SSE 9.2 mph - -   Mostly Cloudy
6:00 AM 53.6 °F 46.4 °F 77% 30.30 in 6.2 mi SSE 9.2 mph - N/A   Mostly Cloudy
7:00 AM 53.6 °F 46.4 °F 77% 30.30 in 6.2 mi SSE 9.2 mph - N/A   Mostly Cloudy
8:00 AM 53.6 °F 50.0 °F 88% 30.33 in 6.2 mi ESE 5.8 mph - N/A   Mostly Cloudy
9:00 AM 57.2 °F 48.2 °F 72% 30.33 in 6.2 mi East 8.1 mph - N/A   Mostly Cloudy
10:00 AM 59.0 °F 51.8 °F 77% 30.33 in 6.2 mi East 6.9 mph - N/A   Mostly Cloudy
11:00 AM 60.8 °F 50.0 °F 68% 30.33 in 6.2 mi East 9.2 mph - N/A   Scattered Clouds
12:00 PM 61 °F 46 °F 46% 30.34 in 6 mi East 8.1 mph - -   Partly Cloudy
12:00 PM 60.8 °F 46.4 °F 59% 30.33 in 6.2 mi East 8.1 mph - N/A   Scattered Clouds
1:00 PM 60.8 °F 42.8 °F 52% 30.30 in 6.2 mi NE 6.9 mph - N/A   Partly Cloudy
2:00 PM 62.6 °F 42.8 °F 48% 30.30 in - NNE 5.8 mph - N/A   Clear
3:00 PM 62 °F 45 °F 43% 30.28 in 6 mi East 6.9 mph - -   Scattered Clouds
3:00 PM 62.6 °F 44.6 °F 52% 30.27 in - East 6.9 mph - N/A   Clear
4:00 PM 60.8 °F 48.2 °F 63% 30.24 in - East 6.9 mph - N/A   Clear
5:00 PM 60.8 °F 46.4 °F 59% 30.24 in - East 9.2 mph - N/A   Clear
6:00 PM 61 °F 47 °F 51% 30.26 in 6 mi ESE 12.7 mph - -   Scattered Clouds
6:00 PM 60.8 °F 48.2 °F 63% 30.24 in - ESE 12.7 mph - N/A   Clear
7:00 PM 59.0 °F 51.8 °F 77% 30.27 in 6.2 mi ESE 12.7 mph - N/A   Partly Cloudy
8:00 PM 59.0 °F 53.6 °F 82% 30.27 in 6.2 mi East 12.7 mph - N/A   Partly Cloudy
9:00 PM 60 °F 53 °F 72% 30.28 in 6 mi East 15.0 mph - -   Scattered Clouds
9:00 PM 60.8 °F 53.6 °F 77% 30.27 in 6.2 mi East 15.0 mph - N/A   Partly Cloudy
10:00 PM 60.8 °F 55.4 °F 82% 30.27 in 6.2 mi East 15.0 mph - N/A   Partly Cloudy
11:00 PM 60.8 °F 55.4 °F 82% 30.27 in 6.2 mi East 12.7 mph - N/A   Partly Cloudy